Butte, MT

10:58 AM MDT on August 29, 2015 (GMT -0600)
Mooney | | Change Station
CLOSE
Current Station
Airport
Location: Butte,
Elevation: 5545 ft
Nearby Weather Stations
Active Advisory: Fire Weather Warning

Elev 5545 ft 45.95 °N, 112.50 °W | Updated 5 minutes ago

Haze
Haze
76 °F
Feels Like 76 °F
N
13
Wind Variable Wind from SSE

Today
High -- | Low -- °F
--% Chance of Precip.
Yesterday
High -- | Low -- °F
Precip. -- in
6:46 AM 8:14 PM
Full, 100% visible
Pressure 29.83 in
Visibility 4.0 miles
Clouds Clear
Dew Point 40 °F
Humidity 27%
Rainfall 0.00 in
Snow Depth Not available.
UV 6 out of 12
Pollen 8.40 out of 12
Air Quality Not available.
Flu Activity Not available.
METAR KBTM 291653Z AUTO 15011KT 4SM HZ CLR 24/04 A3003 RMK AO2 SLP102 T02440044
Pressure 29.83 in
Visibility 4.0 miles
Clouds Clear
Dew Point 40 °F
Humidity 27%
Rainfall 0.00 in
Snow Depth Not available.
UV 6 out of 12
Pollen 8.40 out of 12
Air Quality Not available.
Flu Activity Not available.
METAR KBTM 291653Z AUTO 15011KT 4SM HZ CLR 24/04 A3003 RMK AO2 SLP102 T02440044

10-Day Weather Forecast

×

Almanac

Astronomy

Aug. 29, 2015 Rise Set
Actual Time
Civil Twilight
Nautical Twilight
Astronomical Twilight
Moon
Length of Visible Light
Length of Day
Tomorrow will be .
, % of the Moon is Illuminated

Today's Extremes

State Highs State Lows

Community

WunderPhotos

Upload Photos

1,850,722 photos uploaded!

WunderBlogs® & News

Nearby

Air Quality

  Air Quality AQ Index Pollutant
Not available.

Snow Depth

Station Depth Elevation

Earthquake Activity

City Distance Mag. Time & Date
Minimum magnitude displayed is 2.5.

Coastal Water Temperatures

Place Temperature

Stations

Nearby Weather Stations

Station Location Temp. Windchill Dew Point Humidity Wind Precip. Elev Updated Type
                   
Fire Weather Warning
Statement as of 5:33 AM MDT on August 29, 2015

... Red flag warning remains in effect from 2 PM this afternoon to
midnight MDT tonight for gusty winds and low humidities across
the deerlodge/west Beaverhead... east Beaverhead...

A red flag warning remains in effect from 2 PM this afternoon to
midnight MDT tonight.

* Winds: south to southwest increasing to 25 to 35 mph with higher
gusts this afternoon and evening. Ridgetops and any exposed
elevations will see gusts up to 45 mph. Winds will shift to the
west and northwest during the late evening and decrease.

* Minimum humidities: 15 to 25 percent is expected. Humidity
recovery this evening will be good.

* Thunderstorms: isolated mainly dry thunderstorms. Erratic
outflow gusts should be expected with thunderstorms.